Tracking 18980 objects as of 23-Feb-2018
HD Live streaming from Space Station
objects crossing your sky now

W75/ABS-1B (HOT BIRD 3)

Track W75/ABS-1B (HOT BIRD 3) now!
W75/ABS-1B (HOT BIRD 3) is classified as:


NORAD ID: 24931
Int'l Code: 1997-049A
Perigee: 35,071.4 km
Apogee: 35,299.9 km
Inclination: 6.7 °
Period: 1,405.1 minutes
Semi major axis: 41556 km
RCS: 15.8489 m2 (large)
Launch date: September 2, 1997
Source: European Telecommunications Satellite Organization (EUTE)
Launch site: FRENCH GUIANA (FRGUI)

Cable programming; direct-to-home broadcasting; Europe, North Africa, 20 active channels
aabbcc
Your satellite tracking list
Your tracking list is empty




NASA's NSSDC Master Catalog

Two Line Element Set (TLE):
1 24931U 97049A   18053.40650358 -.00000150 +00000-0 +00000-0 0  9993
2 24931 006.6846 052.1356 0027494 317.8777 217.3078 01.02480647075573
Source of the keplerian elements: AFSPC